GFSNE_850_spd_264.txt.gz
Wind_Speed
36 36 36 36 39 42 42 41 37 19 13 21 23 26 25 25 28 32 30 27 22 24 27 34 39 39 38 38 37 33 33 32 30 29 29 27 27 28
24 30 36 38 34 32 38 42 30 13 18 25 28 28 28 26 27 28 31 26 26 25 30 32 37 39 39 39 39 37 35 33 30 30 29 29 29 29
23 25 26 26 25 24 34 40 31 26 25 35 30 31 32 28 29 27 30 30 27 27 29 29 34 40 41 41 40 40 37 34 32 31 31 30 30 31
20 19 22 21 23 17 18 23 26 26 27 32 33 30 39 34 36 38 38 32 28 30 30 29 32 37 41 42 42 42 38 35 32 28 29 31 32 32
19 19 20 20 20 21 21 19 20 19 22 32 31 34 35 38 35 33 39 39 36 37 32 31 31 39 41 44 45 43 39 36 30 28 27 30 32 33
17 17 18 19 20 20 18 20 22 23 23 23 22 24 27 35 37 38 36 35 38 38 40 39 38 40 45 47 47 46 41 35 30 27 26 29 32 33
15 16 16 16 17 18 19 21 21 22 21 21 21 21 23 24 19 30 36 35 40 40 40 42 45 43 44 50 49 46 39 33 29 27 27 28 30 32
16 16 16 16 17 17 18 17 18 20 20 20 21 21 20 19 19 21 27 32 43 41 41 43 47 47 49 55 50 39 32 28 27 29 32 32 33 35
16 17 18 18 18 17 16 16 13 12 13 14 13 15 16 18 22 20 18 20 25 21 24 32 34 38 47 43 30 25 25 22 24 25 29 32 36 39
17 18 18 17 16 17 16 15 15 16 15 12 11 11 12 12 12 11 10 8 8 12 12 20 27 26 22 21 21 21 22 24 25 28 36 36 37 38
18 17 18 19 18 16 17 16 15 15 13 13 12 14 16 18 20 20 19 15 11 8 5 2 12 17 20 23 27 26 22 22 27 33 34 33 33 34
19 18 14 16 17 18 18 19 18 18 19 17 14 12 11 9 7 6 7 9 11 12 14 16 16 18 18 23 19 15 17 23 25 22 24 25 24 26
21 22 20 17 15 16 18 19 20 20 19 18 17 14 11 10 7 8 8 6 4 6 5 7 8 10 9 6 10 15 19 18 16 16 19 19 20 26
22 22 21 19 17 16 17 18 21 21 18 18 17 15 12 8 7 8 8 6 5 7 7 6 6 8 10 11 11 10 12 11 14 13 17 19 23 31
21 20 19 18 17 17 17 20 20 18 17 17 15 14 12 9 8 7 6 6 5 4 4 6 9 10 10 11 13 14 11 10 12 17 18 17 26 24
25 24 20 19 18 18 18 17 15 15 15 14 15 13 10 9 8 8 7 6 8 10 10 10 11 11 13 13 14 12 9 9 7 12 12 14 16 11
25 25 24 22 21 19 18 16 14 14 13 12 12 11 10 11 10 7 9 9 10 9 9 10 10 12 11 9 9 7 8 6 6 10 7 10 8 10
23 23 23 23 21 20 20 19 16 14 13 12 12 11 11 12 12 11 10 11 11 11 10 10 10 7 6 7 6 6 4 3 7 9 3 4 8 12
24 23 22 24 24 20 19 18 18 14 13 13 14 13 13 14 13 13 10 11 12 11 11 9 7 6 7 5 4 4 3 5 11 11 9 10 16 16
23 25 24 23 22 22 18 18 16 15 14 14 14 12 12 12 12 11 10 11 11 10 9 8 7 8 6 6 5 6 6 8 12 15 20 24 26 24
24 26 26 26 22 20 18 17 15 14 13 12 11 11 12 11 10 10 8 9 9 8 7 6 7 9 4 5 6 9 10 10 12 19 27 30 32 32
24 27 29 25 19 17 13 12 11 11 10 10 10 11 10 9 9 8 9 10 8 6 4 4 7 9 6 8 11 15 14 14 16 24 30 34 38 34
24 26 26 25 23 16 9 4 5 6 8 9 9 8 8 7 6 7 9 9 7 6 4 7 9 10 8 10 15 17 19 21 25 29 31 26 28 31

GFSNE_850_spd_267.txt.gz
Wind_Speed
26 29 28 28 26 26 28 31 31 28 25 18 15 17 22 21 23 25 22 24 27 29 26 26 29 32 36 41 44 41 38 39 36 35 34 31 31 29
25 26 27 28 27 24 23 21 17 25 26 32 22 18 25 27 24 26 24 21 21 23 27 29 29 32 34 38 45 43 40 41 39 37 35 33 32 31
18 18 18 20 23 22 23 24 17 20 26 24 23 27 27 29 29 25 26 29 25 26 25 27 25 27 30 34 43 44 43 43 42 39 36 35 34 33
17 17 17 18 18 18 18 17 16 13 15 20 24 25 25 24 25 30 26 29 32 31 27 25 23 25 28 30 39 43 44 46 45 42 39 37 36 35
16 17 18 19 19 19 19 17 17 19 21 21 22 18 20 20 21 25 30 32 33 31 28 24 29 28 28 29 31 41 44 47 47 47 42 39 37 36
13 14 16 17 19 19 19 19 18 18 17 16 17 18 17 18 20 22 27 24 32 32 32 30 26 27 29 33 39 42 48 49 49 49 44 40 36 34
12 13 14 15 16 18 19 19 18 18 18 17 17 18 17 18 18 19 22 26 29 29 32 33 31 31 30 37 45 45 47 50 49 48 43 37 33 31
13 13 14 14 13 13 15 15 16 18 17 17 15 16 14 15 17 19 22 23 23 22 23 27 29 31 33 35 40 47 49 49 49 45 38 35 33 29
17 18 18 17 16 15 13 13 13 14 15 15 15 14 17 16 17 19 17 17 18 20 19 23 25 28 31 34 32 35 41 37 35 33 30 28 27 29
16 18 19 20 19 19 18 17 15 14 15 16 14 15 16 19 20 22 24 25 20 16 14 14 16 17 19 19 20 21 26 26 23 23 26 29 31 32
16 16 17 20 21 21 21 21 20 17 16 16 17 14 13 13 14 16 16 16 18 18 16 12 8 12 14 15 17 19 23 23 26 27 28 27 27 30
19 19 19 19 20 19 21 22 25 23 23 20 18 15 13 12 11 10 12 12 12 11 7 10 10 11 9 14 18 20 21 21 20 21 24 25 27 32
25 24 23 22 21 19 18 20 21 24 26 23 20 17 14 12 11 11 10 11 9 9 12 8 7 8 9 6 8 14 14 16 20 22 24 23 23 28
27 27 27 26 24 22 20 21 21 22 23 22 20 18 16 13 11 11 10 10 11 11 10 11 8 8 9 9 8 9 12 16 19 19 21 23 26 25
25 26 26 26 25 25 21 21 23 23 21 21 19 17 15 14 13 12 10 9 9 9 8 8 8 9 11 12 13 15 17 17 18 17 20 25 28 27
31 29 27 26 25 24 23 22 21 21 21 20 19 17 14 13 12 11 11 11 11 10 11 12 12 12 13 15 16 19 16 13 14 17 19 20 23 27
32 33 32 29 27 28 26 23 22 21 20 19 18 17 16 14 13 13 12 12 13 12 11 11 13 13 15 15 15 14 13 15 16 16 16 18 22 27
27 27 27 27 27 27 26 27 22 21 20 19 18 17 17 16 15 14 14 14 14 13 13 13 13 11 9 8 9 11 13 12 11 11 14 17 19 17
21 22 26 29 29 28 26 25 23 22 19 19 18 17 18 17 16 16 15 14 14 14 14 14 11 7 7 9 9 10 9 7 8 9 11 10 6 4
24 25 27 29 30 31 26 23 22 21 19 18 18 17 15 14 13 14 13 14 14 14 14 12 9 9 8 8 8 8 6 3 5 5 3 7 10 6
27 27 29 29 30 31 29 21 15 18 17 15 15 14 13 14 14 13 13 12 11 11 10 8 6 8 6 6 6 3 1 0 3 10 13 17 23 26
30 30 30 29 29 29 27 23 16 12 10 11 13 12 13 13 13 12 11 11 11 8 6 4 6 7 7 5 3 6 6 6 11 13 13 18 18 19
31 31 30 28 28 26 24 22 19 15 14 13 14 12 13 12 11 9 8 9 9 7 5 5 8 8 6 3 7 11 14 16 17 21 18 17 25 35

GFSNE_850_spd_270.txt.gz
Wind_Speed
19 21 20 21 23 23 24 23 23 18 23 27 28 27 21 17 19 17 16 19 18 18 22 24 23 23 25 29 34 35 45 44 43 38 40 38 37 36
16 16 17 18 19 19 20 18 16 19 18 26 23 24 19 25 22 24 21 23 19 21 21 20 20 23 30 30 30 34 39 47 48 41 41 39 38 37
13 15 16 17 18 18 17 16 16 17 19 22 19 18 20 22 21 21 19 19 19 22 23 22 23 23 26 33 34 35 37 43 51 48 44 41 39 37
13 14 14 14 14 15 15 15 14 14 17 21 24 25 23 26 22 21 24 24 22 20 22 28 23 27 26 27 28 33 38 42 47 55 45 43 41 39
12 13 14 14 14 14 15 15 14 14 13 15 18 21 21 25 24 24 22 21 21 22 23 25 22 25 25 31 29 29 32 36 44 48 47 47 44 42
11 12 13 15 16 17 17 17 16 16 15 14 14 16 15 17 17 19 23 21 22 23 26 28 26 23 25 26 29 32 34 38 42 44 51 51 49 48
11 11 13 14 14 16 18 18 18 17 17 16 15 17 17 19 18 18 18 20 18 16 19 20 23 22 22 24 27 30 35 37 42 47 52 54 54 54
15 15 14 16 16 14 12 14 16 18 17 17 16 16 17 16 18 19 21 24 24 14 22 19 19 23 27 26 23 25 29 32 34 44 51 56 56 56
16 18 17 17 18 19 17 15 15 15 16 16 18 17 20 19 20 22 20 20 22 21 22 21 18 19 22 21 22 19 20 23 23 24 33 45 49 44
15 16 17 18 18 19 22 20 18 17 17 17 20 21 20 20 18 19 20 19 18 17 15 20 18 18 18 20 21 19 17 13 11 13 25 34 32 32
18 20 21 20 21 20 22 23 23 21 18 20 19 21 20 17 16 19 17 17 20 17 16 13 13 14 14 13 10 5 7 12 16 20 25 32 29 25
22 23 24 25 24 24 23 24 26 26 24 23 23 20 17 16 15 17 17 17 16 16 9 14 12 11 6 10 10 10 12 15 15 16 19 22 27 29
27 28 27 27 25 25 25 24 25 27 27 26 25 23 19 14 15 16 16 16 16 16 15 13 11 12 10 11 12 11 16 17 19 19 20 22 23 25
28 30 30 29 27 27 27 25 24 25 26 26 27 25 21 17 14 16 17 16 16 16 15 14 15 13 12 13 12 11 11 12 14 16 19 20 21 21
29 30 30 29 29 30 28 27 26 25 25 26 26 25 21 19 17 16 15 16 15 13 13 12 12 12 12 14 16 17 18 18 19 20 20 20 20 23
32 32 31 30 27 24 24 25 23 23 25 24 25 24 22 19 17 16 16 15 16 15 14 14 15 15 16 16 17 19 18 17 19 18 20 21 21 23
30 29 28 28 31 31 30 26 23 21 22 21 23 22 21 19 18 16 16 16 16 16 15 15 14 14 16 18 21 17 16 16 17 16 17 19 19 22
28 27 26 27 29 31 32 33 26 23 20 20 23 20 20 19 19 18 17 16 16 17 15 15 14 15 16 14 12 13 13 14 13 13 15 19 21 24
28 28 27 28 30 31 31 32 31 25 20 18 20 19 18 18 19 18 17 17 17 17 16 15 14 13 10 11 11 13 13 11 11 11 13 17 18 18
31 31 30 30 30 31 30 30 28 25 20 17 20 15 15 15 15 15 15 15 15 15 14 14 13 11 10 7 8 13 11 7 8 9 9 6 6 7
34 34 33 32 30 29 29 28 26 24 21 18 14 13 13 13 15 16 15 14 13 13 13 11 9 9 8 6 7 7 4 3 4 5 3 1 4 10
33 34 35 33 30 29 28 28 26 24 22 21 19 18 14 14 15 14 12 12 11 10 8 7 6 7 8 6 5 3 4 3 2 1 2 2 6 6
33 34 35 33 31 29 28 28 27 26 24 23 23 20 18 16 13 11 9 7 7 8 7 6 6 7 5 3 6 9 10 9 8 9 13 4 16 32

GFSNE_850_spd_276.txt.gz
Wind_Speed
16 17 15 14 17 17 16 16 14 9 13 10 13 15 19 23 24 22 24 26 24 24 23 21 18 18 17 17 17 18 19 30 33 29 26 31 35 41
10 8 7 7 9 12 14 13 14 13 9 10 13 17 25 26 27 27 26 27 27 25 25 23 21 19 19 17 17 18 19 24 29 39 32 29 29 40
4 2 1 3 6 8 9 9 9 10 9 16 12 14 20 21 21 22 22 24 23 27 24 25 21 22 23 21 20 20 19 21 24 29 42 39 36 37
3 1 2 2 3 4 5 8 9 9 11 15 15 15 17 18 17 19 17 15 18 22 25 27 26 23 22 23 26 26 25 25 25 29 28 32 36 38
2 2 2 3 5 6 7 8 11 11 12 14 16 13 13 14 19 16 17 17 15 19 21 21 24 25 25 25 27 26 28 30 30 30 31 36 35 37
4 5 5 8 9 10 9 11 13 14 15 14 15 14 15 19 18 17 22 18 19 18 15 19 19 21 25 28 29 30 29 31 30 32 33 31 34 37
6 6 7 8 9 11 11 13 14 15 15 16 17 18 18 18 18 21 22 21 20 12 12 15 16 14 13 15 21 24 28 32 32 33 33 34 37 34
3 6 7 8 9 12 14 15 15 15 15 16 18 21 21 19 21 20 23 22 19 11 17 20 16 15 13 15 14 17 21 25 31 33 34 35 35 37
7 7 8 10 14 15 16 16 17 17 16 17 19 20 21 22 22 26 24 22 24 25 22 23 17 17 17 23 17 16 15 18 22 25 28 31 34 37
10 10 11 11 17 20 23 20 19 18 19 18 19 22 21 23 25 26 26 30 29 27 19 25 18 17 15 16 20 17 16 16 18 22 25 28 34 35
10 12 16 15 20 21 22 20 21 20 19 22 24 26 26 26 26 28 28 27 30 28 21 22 20 20 19 18 19 17 16 14 11 11 12 15 18 28
13 14 18 23 23 23 24 22 20 21 27 31 27 24 26 26 25 27 27 29 30 28 16 15 15 12 13 13 11 11 15 14 11 9 6 6 6 6
18 19 20 25 25 24 23 18 24 27 27 24 23 24 24 24 25 23 24 28 29 32 30 27 29 26 21 23 23 18 17 17 17 18 18 16 14 11
22 23 25 26 24 22 20 21 23 22 20 20 21 21 22 23 23 25 24 26 28 30 30 27 30 28 24 21 22 17 16 16 15 15 18 18 19 20
24 24 25 25 24 20 21 21 20 20 21 23 23 22 21 23 25 26 25 26 29 29 29 30 30 30 28 27 24 19 18 18 17 19 21 23 21 19
25 23 23 22 19 19 20 20 21 21 22 21 23 24 24 21 26 22 25 27 28 28 25 26 26 28 27 26 23 22 20 19 20 20 21 20 21 22
19 17 18 20 21 21 21 20 20 21 21 22 24 25 24 22 24 23 25 25 26 25 23 21 20 24 26 25 24 23 21 20 21 23 21 24 24 24
17 20 22 23 24 24 25 25 23 24 23 25 23 23 24 23 24 21 23 25 25 23 22 20 20 19 20 23 23 22 21 20 20 18 19 23 24 21
23 23 22 24 24 24 24 24 26 26 27 24 25 25 25 25 24 22 21 21 23 21 19 19 20 19 17 16 15 15 17 18 18 19 18 21 23 20
22 22 23 24 24 24 23 24 26 27 27 28 27 26 26 25 26 23 21 21 21 19 19 16 18 19 19 16 12 13 14 17 19 19 17 19 20 20
23 22 23 24 25 26 26 27 28 28 29 28 27 27 27 27 26 24 23 20 19 19 18 17 16 14 15 17 17 15 17 16 16 16 16 17 17 17
25 25 27 28 28 28 29 29 29 29 29 29 30 30 29 27 26 25 23 21 18 17 15 13 11 11 13 13 10 10 14 12 12 10 11 14 17 11
30 31 31 31 31 30 29 29 30 31 31 33 35 32 31 28 25 24 22 20 16 11 8 8 8 7 7 8 8 8 9 4 4 5 4 5 5 9

GFSNE_850_spd_279.txt.gz
Wind_Speed
13 12 5 11 16 15 17 19 19 8 13 11 11 12 18 25 27 28 25 24 25 25 22 23 21 20 21 19 19 18 18 21 18 15 16 20 25 30
16 8 10 11 10 11 10 11 11 13 10 6 13 16 21 22 15 19 16 19 16 24 25 23 24 20 19 19 20 21 21 20 19 19 27 28 26 28
14 11 9 8 4 2 2 5 4 8 11 14 12 15 18 17 15 16 14 13 11 21 25 23 21 22 20 21 21 22 22 21 19 21 24 33 36 30
12 10 7 3 4 1 3 4 6 5 9 14 13 13 15 16 15 19 14 13 14 17 23 22 20 20 22 22 22 22 24 23 23 22 22 26 29 31
8 6 5 2 2 1 2 4 5 9 9 13 16 13 14 15 19 17 15 17 15 18 17 17 18 18 19 20 23 26 26 24 29 28 26 26 26 28
7 5 3 2 5 6 6 8 9 12 12 14 14 15 16 18 17 17 20 19 20 19 13 11 16 16 15 17 22 24 30 32 30 26 28 29 29 31
7 7 6 7 8 9 9 11 13 13 14 15 17 18 20 18 19 22 23 25 26 18 10 12 13 11 8 11 18 19 17 23 27 29 29 31 31 33
10 9 10 8 12 13 14 16 14 16 17 15 20 20 20 20 22 24 26 24 27 17 14 19 17 15 12 17 18 21 20 19 21 25 29 32 33 33
10 9 7 13 19 20 19 19 15 15 20 22 21 22 25 23 24 25 25 25 28 28 26 26 22 19 13 17 22 22 19 20 20 20 22 25 29 33
12 10 11 12 17 21 21 18 16 15 15 17 19 22 24 27 28 33 35 35 34 30 23 29 23 23 21 21 19 23 19 18 18 18 20 23 26 30
13 14 15 15 21 20 20 18 17 15 16 20 24 30 33 32 25 29 32 31 33 28 22 27 25 30 27 22 18 19 19 14 13 13 13 15 17 20
12 11 16 20 21 22 21 19 18 22 27 26 23 22 22 22 23 25 30 31 32 34 21 16 16 15 12 15 15 11 12 14 14 16 13 9 9 9
14 14 15 21 21 20 17 15 20 23 20 20 22 21 21 21 21 21 24 28 31 33 29 29 34 34 35 30 30 28 22 16 19 16 17 17 15 12
17 17 19 21 20 19 17 20 20 18 19 21 22 23 23 23 22 24 26 29 28 33 30 25 29 30 31 29 27 23 15 17 17 15 14 19 17 18
18 20 21 21 20 19 22 23 20 20 21 22 22 24 26 26 26 24 23 25 26 26 28 28 31 33 36 38 33 29 21 21 18 16 17 19 23 21
21 20 22 23 22 21 21 21 20 20 22 22 26 26 27 28 27 24 27 28 28 30 29 30 28 29 33 35 34 33 29 23 19 16 17 20 19 16
21 20 21 22 23 23 23 22 23 22 24 26 26 27 27 28 28 26 26 27 28 30 32 29 26 26 25 27 31 30 27 24 22 20 19 21 21 20
19 21 23 24 26 27 28 27 25 25 26 27 27 27 29 30 31 30 27 25 29 28 29 28 25 23 23 24 23 26 26 23 18 21 21 21 22 22
21 23 25 27 28 27 27 27 28 27 28 27 28 28 28 29 30 30 29 27 27 26 26 25 23 24 21 22 17 15 21 21 21 21 20 22 23 20
24 25 26 26 26 27 27 27 29 29 29 29 28 28 29 30 30 29 28 27 28 28 25 23 22 20 21 21 16 18 18 19 19 19 20 21 19 19
25 25 25 26 27 27 28 28 29 29 30 30 32 31 34 32 33 31 29 29 28 25 25 23 21 19 19 18 20 22 17 17 18 19 18 17 17 19
27 29 30 29 28 28 28 30 32 32 33 35 37 38 38 36 33 31 30 29 28 26 26 19 17 13 11 14 16 15 15 13 14 14 12 13 14 7
32 32 32 30 29 29 31 33 33 34 35 38 40 40 38 35 32 29 28 26 26 25 21 15 12 12 10 9 9 9 8 10 7 7 6 3 5 8

GFSNE_850_spd_285.txt.gz
Wind_Speed
27 42 52 45 36 34 26 19 23 13 18 13 14 8 7 9 10 12 14 16 18 18 13 14 14 17 20 22 23 22 22 20 20 19 19 19 20 25
21 20 21 19 16 21 24 20 18 22 15 17 9 5 4 7 9 10 9 10 12 6 7 11 13 15 17 19 17 20 22 22 22 20 19 22 21 23
25 25 20 18 16 15 15 17 16 17 21 17 12 10 13 12 10 10 9 11 11 12 15 14 15 16 16 16 15 17 21 22 24 22 21 21 21 19
27 31 29 24 23 16 14 18 18 15 13 18 15 11 11 12 12 13 13 13 13 15 15 17 16 15 11 15 14 15 18 20 25 23 23 23 22 19
28 24 24 20 17 15 16 15 16 11 6 4 5 6 8 9 11 13 14 16 16 14 13 15 18 18 16 14 16 17 17 19 21 23 26 23 24 23
20 20 20 20 17 17 17 17 12 7 4 2 5 6 9 11 12 14 17 19 19 16 14 16 18 18 16 17 18 17 16 21 22 21 23 27 28 25
21 23 23 23 20 19 17 15 12 10 9 9 10 12 13 16 17 18 20 22 24 22 21 16 17 18 19 22 21 21 20 21 26 25 25 24 28 33
20 20 19 19 18 16 14 13 12 14 13 12 12 14 14 17 19 22 25 27 32 24 30 28 26 22 20 23 23 19 19 22 25 31 28 27 25 26
23 23 22 20 18 17 13 10 8 9 11 13 15 16 19 19 21 22 21 20 23 26 29 31 27 28 24 23 21 19 22 24 26 30 31 25 26 26
25 26 24 23 22 21 18 16 15 13 12 12 12 13 15 18 19 21 23 23 23 23 20 30 27 26 23 21 16 16 22 25 25 23 29 25 23 26
21 25 26 25 22 20 20 19 17 16 14 12 12 12 11 12 14 18 20 22 25 25 20 20 20 26 27 25 19 17 17 15 18 22 20 20 21 23
24 25 26 24 21 21 21 21 21 22 19 17 15 13 13 13 13 13 15 18 21 21 22 28 31 29 26 22 1 10 17 19 19 22 19 17 20 24
24 25 25 23 21 20 19 20 20 18 18 18 17 17 17 16 15 15 15 15 17 19 22 21 25 25 28 31 28 29 25 26 32 35 30 22 24 25
22 22 21 20 19 18 18 17 16 17 18 19 21 22 22 21 20 20 19 19 19 21 22 19 23 23 27 30 30 27 29 29 30 33 33 33 27 25
22 19 19 18 19 18 18 18 18 20 20 22 23 23 23 24 23 21 21 21 21 21 19 17 18 20 23 27 33 32 31 33 33 30 30 33 34 30
22 20 19 19 20 21 22 22 22 22 22 23 24 24 25 26 26 25 27 28 28 26 22 20 18 19 22 26 29 33 33 34 33 32 29 26 30 29
24 25 25 24 23 24 24 24 25 24 25 24 25 26 26 27 27 26 26 27 27 28 28 23 22 22 24 27 30 29 33 34 32 34 27 28 31 30
25 27 28 27 26 26 26 26 26 27 26 25 25 25 27 28 29 27 26 27 28 27 28 26 25 26 24 22 18 24 27 26 26 28 27 27 28 30
30 29 28 28 28 27 27 28 30 29 27 26 27 28 28 29 29 30 30 28 27 28 27 26 25 23 25 29 27 19 21 23 25 26 28 28 30 28
31 29 29 29 29 29 30 31 30 30 29 29 29 29 30 32 31 30 29 28 28 27 28 24 23 24 25 28 31 29 23 26 27 26 24 22 24 24
32 30 29 29 29 29 30 30 30 30 30 31 31 31 31 31 30 28 28 27 27 28 30 26 23 21 22 23 26 27 25 17 19 21 19 17 18 22
33 32 31 30 30 30 31 32 32 32 33 34 34 32 29 28 28 28 27 28 28 28 29 27 24 22 20 23 26 24 21 18 17 18 21 22 21 18
33 32 31 31 32 32 32 33 35 36 35 32 30 29 28 28 26 27 28 28 29 29 28 28 26 23 21 21 20 20 17 14 11 12 15 18 19 19

GFSNE_850_spd_291.txt.gz
Wind_Speed
10 7 6 10 12 16 23 28 28 33 17 25 26 29 34 34 34 34 33 35 40 39 38 38 34 30 26 27 30 30 30 29 27 27 27 27 25 23
21 13 8 7 1 6 11 15 35 39 20 28 22 36 39 40 38 37 34 35 33 26 20 21 23 23 22 23 24 23 25 24 23 26 28 27 25 24
24 26 26 25 22 19 9 2 5 14 32 33 33 30 33 34 31 28 25 22 18 16 18 17 16 16 19 21 20 20 20 20 21 23 25 27 28 23
24 24 27 25 24 27 29 26 23 26 32 38 28 25 26 26 25 20 19 17 16 18 17 16 15 15 17 20 18 18 19 19 21 22 23 25 26 29
27 27 28 25 25 26 26 30 28 28 28 29 26 18 14 12 17 13 11 10 11 12 14 14 16 16 18 19 19 20 20 20 21 23 24 24 25 27
29 27 27 27 27 25 23 23 19 18 17 15 15 13 10 9 8 8 4 3 8 10 12 14 14 17 20 22 23 23 24 23 24 24 25 25 24 26
30 29 27 24 22 22 22 21 18 16 15 12 12 10 11 10 11 9 8 5 4 8 10 11 11 15 18 21 25 25 27 27 27 28 29 28 27 25
31 29 28 26 25 25 22 22 21 18 16 13 12 10 9 7 7 8 10 11 6 9 12 9 11 12 16 18 20 24 26 27 30 33 34 31 32 33
30 28 27 26 24 23 23 22 20 20 20 18 16 16 13 12 11 10 9 10 11 11 14 11 11 11 13 13 15 19 20 21 26 31 34 35 33 32
28 28 27 27 25 22 21 22 22 21 21 19 16 14 12 12 12 11 11 10 8 8 12 10 13 14 14 11 13 16 15 17 17 16 17 24 29 29
26 27 26 25 24 21 20 20 20 20 18 16 14 12 11 11 10 9 9 10 9 11 6 12 17 19 15 9 8 9 13 16 19 20 19 17 18 25
25 24 24 24 23 21 20 19 19 19 16 14 12 11 10 10 10 9 10 10 11 6 5 16 18 17 12 2 12 13 14 15 19 19 21 24 23 23
26 25 23 21 21 20 20 20 19 17 15 13 12 12 12 12 12 11 10 10 12 14 12 15 18 18 12 20 22 18 18 15 14 16 19 23 26 28
25 23 20 18 18 17 17 17 16 15 15 15 14 15 16 16 15 14 13 12 12 14 14 12 17 18 19 24 28 25 26 24 23 21 20 19 20 26
23 21 18 16 14 14 15 16 16 18 19 19 19 18 18 18 17 16 14 14 11 9 9 12 14 16 19 24 29 32 30 29 27 21 21 22 23 24
21 20 18 15 14 15 16 19 20 21 21 21 20 20 19 18 18 18 18 17 15 10 9 11 13 16 21 23 26 31 28 29 28 25 26 26 25 25
22 22 20 20 20 20 21 22 21 21 21 21 22 22 21 20 18 18 19 19 20 21 16 12 14 17 19 20 25 24 23 23 21 22 23 26 27 27
26 27 27 27 27 26 25 24 24 23 23 21 20 20 20 19 19 18 19 20 20 20 21 21 20 21 21 20 19 22 23 23 20 21 24 27 32 29
30 30 29 28 27 26 26 26 26 24 23 22 21 20 20 20 20 20 19 20 20 21 21 21 20 21 24 29 29 20 22 26 28 28 27 30 33 33
34 33 31 30 29 29 29 28 26 26 25 24 22 21 21 21 21 22 22 23 24 24 24 22 22 22 24 28 32 32 24 25 24 26 26 25 26 25
37 35 33 32 32 32 31 29 28 28 27 25 24 23 23 24 23 24 25 24 25 26 27 25 23 23 24 26 30 33 29 23 23 22 23 25 26 28
38 36 34 33 33 33 32 32 32 31 29 28 27 25 25 24 25 25 26 26 26 26 27 26 24 24 24 26 29 31 30 26 22 22 23 23 25 24
38 36 35 34 34 34 34 34 34 32 31 29 27 26 26 25 24 25 26 25 26 27 27 28 26 25 24 26 27 29 28 26 25 23 22 20 23 26

GFSNE_850_spd_297.txt.gz
Wind_Speed
21 19 16 10 7 4 4 6 10 6 6 11 13 21 28 37 40 39 40 40 43 45 49 48 49 48 45 44 46 45 41 40 40 37 33 31 28 29
27 24 24 23 15 9 5 4 7 12 5 8 7 13 20 25 34 38 40 38 35 39 46 50 51 50 47 46 46 44 43 41 37 33 32 32 32 31
32 29 27 27 28 22 14 8 1 9 13 11 9 9 10 13 17 25 28 34 38 43 42 47 49 48 47 48 46 45 42 44 39 34 31 31 31 28
31 33 32 28 30 30 28 21 16 14 19 20 17 13 11 13 14 22 26 31 27 27 30 50 51 50 48 47 46 44 43 41 38 28 28 29 26 25
29 31 32 32 32 30 28 25 24 22 22 23 23 20 20 18 15 16 17 17 17 21 25 26 28 29 30 30 29 29 26 24 23 21 23 23 23 23
28 30 30 30 31 32 27 24 20 18 18 20 20 19 18 17 15 15 14 13 10 8 9 10 25 21 21 20 18 18 20 21 22 23 22 21 21 22
28 29 29 28 27 26 25 25 21 21 20 18 20 17 19 17 16 12 10 10 9 7 4 4 7 11 15 13 16 18 19 20 21 21 21 21 20 19
28 27 25 26 25 25 22 22 21 22 21 19 19 19 20 19 17 15 12 6 4 6 7 8 8 4 3 8 9 10 13 18 19 20 21 21 21 22
26 26 25 26 23 21 20 20 21 23 22 19 18 19 18 16 14 14 13 10 9 7 5 2 0 1 5 7 8 10 12 16 15 19 20 23 23 25
23 25 24 25 23 20 19 19 20 20 20 20 18 17 16 15 14 14 11 7 7 7 5 4 3 1 5 5 8 12 14 14 15 18 19 20 20 21
21 22 24 23 23 20 19 18 17 16 15 15 15 15 14 13 13 11 11 8 7 5 8 5 4 3 3 5 5 3 6 9 12 13 14 15 17 18
20 21 22 22 21 20 19 19 18 17 15 12 11 10 11 12 12 12 10 9 7 3 7 7 6 7 2 6 9 2 7 9 9 11 13 15 17 19
23 22 21 20 20 19 18 18 17 15 13 12 12 11 11 10 10 10 10 9 7 5 9 9 7 7 4 3 6 5 3 7 10 11 14 16 17 18
24 22 20 19 18 18 17 16 15 14 14 14 13 13 13 12 12 11 10 9 8 7 7 8 7 8 10 10 8 8 10 9 8 10 12 13 16 18
22 20 17 17 16 17 17 18 18 17 17 16 16 16 15 14 12 11 9 9 7 6 7 8 9 9 10 12 15 15 18 14 5 3 13 14 15 18
22 22 22 22 21 21 20 20 21 20 19 18 17 16 15 14 14 13 11 9 7 6 7 9 10 11 12 14 17 18 16 14 15 16 16 17 17 18
27 27 27 27 26 25 24 23 22 21 19 18 18 17 16 15 14 14 13 12 10 10 10 11 11 13 14 15 18 16 17 18 17 18 18 20 20 20
31 31 32 31 30 29 28 25 24 22 21 20 19 18 18 18 17 16 15 15 13 12 11 11 12 14 14 15 12 14 16 16 16 18 20 22 25 23
34 33 32 32 30 29 27 26 25 23 22 20 20 19 19 18 18 18 17 17 15 14 14 13 13 14 12 14 17 16 17 18 21 23 23 24 25 23
37 35 33 32 31 29 28 26 24 23 22 21 20 20 20 19 19 19 18 18 18 17 15 14 14 14 15 16 19 23 18 19 21 24 26 27 29 28
39 37 35 34 33 31 29 27 26 26 25 24 23 21 21 20 19 19 19 18 19 19 19 17 17 17 18 19 21 23 23 19 20 21 22 26 28 26
38 38 36 35 34 32 31 29 28 27 27 25 24 23 22 21 21 21 21 21 21 21 22 21 19 18 18 17 20 24 24 23 19 20 21 22 25 21
37 37 37 36 35 34 32 30 30 29 27 26 25 24 24 23 22 22 22 21 22 23 24 24 21 17 17 19 23 26 27 26 24 23 22 20 21 25